Content
SEND FEEDBACK

Daily
Averages
Monthly
Summary
United States of America

UMATAC, GUAM


Home > North America > United States > Guam
Elevation: 190 feet     Latitude: 13 17N     Longitude: 144 40E

WEATHER
 
SELECT A DAY
Number of Records: 337,293;   Date Range: 1/1/95 - 4/15/14
 
SHARE

PRINT THIS DATA

[ ← Previous Day ]
WEATHER ALMANAC - JUNE 26, 2013
[ Next Day → ]
[ °C ]   °F
We're sorry. There is no daily almanac available for Umatac, Guam on June 26, 2013.
WEATHER BY HOUR - JUNE 26, 2013
[ °C ]   °F
Local TimeTemperatureDewpointHumidityBarometerVisibilityWind DirectionWind SpeedGust SpeedPrecipitationEventsConditions
12:45 AM80.6 °F77.0 °F89 %29.85 in10.0 miENE (60°)16.1 mphScattered Clouds
12:47 AM80.6 °F77.0 °F89 %29.85 in10.0 miENE (60°)16.1 mphMostly Cloudy
12:48 AM80.6 °F77.0 °F89 %29.85 in10.0 miENE (60°)15.0 mphMostly Cloudy
12:52 AM80.6 °F77.0 °F89 %29.85 in10.0 miENE (70°)16.1 mphMostly Cloudy
12:55 AM80.1 °F76.6 °F89 %29.85 in10.0 miENE (70°)15.0 mph23.0 mphMostly Cloudy
1:07 AM78.8 °F75.2 °F89 %29.85 in10.0 miENE (70°)15.0 mphMostly Cloudy
1:10 AM78.8 °F75.2 °F89 %29.84 in10.0 miENE (70°)17.3 mphMostly Cloudy
1:12 AM78.8 °F75.2 °F89 %29.84 in10.0 miENE (70°)17.3 mphMostly Cloudy
1:15 AM78.8 °F75.2 °F89 %29.84 in10.0 miENE (70°)15.0 mphScattered Clouds
1:55 AM80.1 °F75.9 °F87 %29.83 in10.0 miENE (70°)16.1 mphMostly Cloudy
2:00 AM80.6 °F75.2 °F84 %29.83 in10.0 miENE (70°)17.3 mphScattered Clouds
2:02 AM80.6 °F75.2 °F84 %29.83 in10.0 miENE (70°)16.1 mphMostly Cloudy
2:06 AM78.8 °F75.2 °F89 %29.83 in10.0 miENE (70°)16.1 mphMostly Cloudy
2:08 AM78.8 °F75.2 °F89 %29.83 in10.0 miENE (70°)16.1 mphMostly Cloudy
2:09 AM78.8 °F75.2 °F89 %29.83 in10.0 miENE (70°)16.1 mphMostly Cloudy
2:18 AM80.6 °F75.2 °F84 %29.82 in10.0 miEast (80°)13.8 mphMostly Cloudy
2:20 AM80.6 °F75.2 °F84 %29.82 in10.0 miEast (80°)16.1 mphScattered Clouds
2:41 AM80.6 °F77.0 °F89 %29.82 in9.0 miEast (90°)13.8 mphRainLight Rain
2:53 AM78.8 °F77.0 °F94 %29.82 in10.0 miEast (90°)16.1 mphScattered Clouds
2:55 AM79.5 °F76.3 °F90 %29.82 in10.0 miEast (90°)16.1 mph0.01 inMostly Cloudy
2:57 AM78.8 °F77.0 °F94 %29.82 in10.0 miEast (80°)16.1 mphMostly Cloudy
3:51 AM78.8 °F75.2 °F89 %29.82 in10.0 miEast (90°)16.1 mphMostly Cloudy
3:55 AM79.5 °F74.8 °F86 %29.81 in10.0 miEast (80°)17.3 mphScattered Clouds
4:01 AM78.8 °F75.2 °F89 %29.81 in10.0 miEast (80°)17.3 mphMostly Cloudy
4:04 AM78.8 °F75.2 °F89 %29.81 in10.0 miEast (80°)17.3 mphScattered Clouds
4:18 AM80.6 °F75.2 °F84 %29.81 in10.0 miEast (90°)16.1 mphMostly Cloudy
4:21 AM80.6 °F75.2 °F84 %29.81 in10.0 miEast (80°)12.7 mphMostly Cloudy
4:50 AM80.6 °F75.2 °F84 %29.82 in10.0 miEast (90°)13.8 mphScattered Clouds
4:55 AM79.9 °F75.4 °F86 %29.82 in10.0 miEast (90°)15.0 mphScattered Clouds
5:03 AM80.6 °F75.2 °F84 %29.82 in10.0 miEast (90°)15.0 mphMostly Cloudy
5:09 AM80.6 °F75.2 °F84 %29.82 in10.0 miEast (80°)15.0 mphScattered Clouds
5:12 AM80.6 °F75.2 °F84 %29.82 in10.0 miEast (80°)15.0 mphMostly Cloudy
5:15 AM80.6 °F75.2 °F84 %29.82 in10.0 miEast (90°)15.0 mphScattered Clouds
5:21 AM80.6 °F75.2 °F84 %29.82 in10.0 miEast (80°)15.0 mphMostly Cloudy
5:27 AM80.6 °F75.2 °F84 %29.82 in10.0 miEast (90°)13.8 mphScattered Clouds
5:40 AM80.6 °F75.2 °F84 %29.82 in10.0 miEast (80°)13.8 mphMostly Cloudy
5:41 AM80.6 °F75.2 °F84 %29.82 in10.0 miEast (90°)16.1 mphMostly Cloudy
5:55 AM79.7 °F75.2 °F86 %29.83 in10.0 miEast (80°)16.1 mphScattered Clouds
6:20 AM80.6 °F75.2 °F84 %29.83 in10.0 miEast (90°)12.7 mphMostly Cloudy
6:27 AM80.6 °F77.0 °F89 %29.83 in10.0 miEast (90°)12.7 mphMostly Cloudy
6:41 AM80.6 °F77.0 °F89 %29.83 in10.0 miEast (90°)12.7 mphMostly Cloudy
6:44 AM80.6 °F77.0 °F89 %29.83 in10.0 miEast (100°)12.7 mphMostly Cloudy
6:55 AM80.4 °F76.6 °F88 %29.84 in8.0 miESE (110°)12.7 mph0.00 inRainLight Rain
6:58 AM80.6 °F77.0 °F89 %29.84 in7.0 miEast (100°)12.7 mphRainLight Rain
7:08 AM80.6 °F77.0 °F89 %29.84 in10.0 miEast (90°)15.0 mphMostly Cloudy
7:10 AM80.6 °F77.0 °F89 %29.84 in10.0 miEast (90°)16.1 mphMostly Cloudy
7:12 AM80.6 °F77.0 °F89 %29.84 in10.0 miEast (90°)15.0 mphScattered Clouds
7:40 AM82.4 °F77.0 °F84 %29.85 in10.0 miEast (90°)15.0 mph21.9 mphMostly Cloudy
7:42 AM82.4 °F77.0 °F84 %29.85 in10.0 miEast (90°)15.0 mph21.9 mphScattered Clouds
7:55 AM82.2 °F76.6 °F83 %29.85 in10.0 miEast (80°)13.8 mph0.00 inScattered Clouds
8:09 AM82.4 °F77.0 °F84 %29.85 in10.0 miEast (100°)12.7 mphMostly Cloudy
8:11 AM82.4 °F77.0 °F84 %29.85 in10.0 miEast (100°)11.5 mphScattered Clouds
8:16 AM82.4 °F77.0 °F84 %29.85 in10.0 miEast (100°)11.5 mphMostly Cloudy
8:22 AM82.4 °F77.0 °F84 %29.85 in10.0 miEast (100°)15.0 mphMostly Cloudy
8:33 AM84.2 °F77.0 °F79 %29.86 in10.0 miEast (100°)15.0 mphMostly Cloudy
8:39 AM84.2 °F77.0 °F79 %29.86 in10.0 miEast (100°)13.8 mphScattered Clouds
8:42 AM84.2 °F77.0 °F79 %29.86 in10.0 miEast (100°)15.0 mphMostly Cloudy
8:55 AM83.8 °F76.6 °F79 %29.86 in10.0 miEast (100°)13.8 mphMostly Cloudy
9:34 AM84.2 °F77.0 °F79 %29.86 in10.0 miESE (110°)15.0 mphScattered Clouds
9:55 AM85.5 °F77.2 °F76 %29.86 in10.0 miEast (100°)15.0 mphScattered Clouds
10:26 AM86.0 °F77.0 °F74 %29.85 in10.0 miEast (90°)13.8 mphMostly Cloudy
10:55 AM84.7 °F77.0 °F77 %29.85 in10.0 miEast (100°)13.8 mphMostly Cloudy
11:05 AM86.0 °F77.0 °F74 %29.85 in10.0 miEast (100°)13.8 mphScattered Clouds
11:13 AM86.0 °F77.0 °F74 %29.85 in10.0 miESE (110°)11.5 mph20.7 mphMostly Cloudy
11:55 AM85.6 °F77.2 °F76 %29.84 in10.0 miESE (110°)10.4 mph19.6 mphMostly Cloudy
11:56 AM86.0 °F77.0 °F74 %29.84 in10.0 miESE (110°)10.4 mph19.6 mphScattered Clouds
12:14 PM84.2 °F77.0 °F79 %29.84 in10.0 miEast (90°)11.5 mphMostly Cloudy
12:30 PM86.0 °F77.0 °F74 %29.83 in10.0 miEast (90°)13.8 mphMostly Cloudy
12:55 PM85.8 °F77.5 °F76 %29.83 in10.0 miESE (110°)13.8 mphScattered Clouds
12:58 PM86.0 °F77.0 °F74 %29.83 in10.0 miESE (110°)17.3 mphLight Drizzle
1:01 PM84.2 °F75.2 °F74 %29.83 in8.0 miESE (110°)12.7 mphLight Drizzle
1:05 PM84.2 °F77.0 °F79 %29.83 in7.0 miESE (110°)9.2 mphLight Drizzle
1:24 PM84.2 °F78.8 °F84 %29.82 in10.0 miESE (110°)10.4 mphScattered Clouds
1:43 PM84.2 °F77.0 °F79 %29.82 in10.0 miEast (90°)16.1 mph24.2 mphMostly Cloudy
1:45 PM84.2 °F77.0 °F79 %29.82 in10.0 miESE (120°)16.1 mph24.2 mphMostly Cloudy
1:51 PM84.2 °F77.0 °F79 %29.82 in10.0 miSE (130°)12.7 mph24.2 mphMostly Cloudy
1:55 PM84.2 °F77.5 °F80 %29.82 in10.0 miSE (130°)10.4 mph0.00 inScattered Clouds
2:15 PM84.2 °F77.0 °F79 %29.81 in9.0 miESE (120°)10.4 mphLight Drizzle
2:23 PM84.2 °F77.0 °F79 %29.81 in10.0 miESE (120°)9.2 mphScattered Clouds
2:32 PM84.2 °F77.0 °F79 %29.81 in10.0 miEast (100°)8.1 mphMostly Cloudy
2:55 PM83.5 °F77.7 °F83 %29.81 in10.0 miESE (110°)10.4 mph0.00 inMostly Cloudy
3:00 PM84.2 °F77.0 °F79 %29.81 in10.0 miESE (110°)10.4 mphScattered Clouds
3:02 PM84.2 °F77.0 °F79 %29.81 in10.0 miESE (110°)13.8 mphMostly Cloudy
3:05 PM84.2 °F77.0 °F79 %29.81 in10.0 miESE (120°)11.5 mphScattered Clouds
3:55 PM85.6 °F76.6 °F74 %29.80 in10.0 miEast (100°)12.7 mphPartly Cloudy
4:26 PM86.0 °F78.8 °F79 %29.80 in2.0 miEast (100°)17.3 mph23.0 mphRainLight Rain
4:27 PM84.2 °F77.0 °F79 %29.80 in1.2 miEast (100°)13.8 mph23.0 mphRainLight Rain
4:28 PM84.2 °F77.0 °F79 %29.80 in1.0 miEast (80°)12.7 mph23.0 mphRainLight Rain
4:31 PM82.4 °F77.0 °F84 %29.79 in1.0 miESE (110°)10.4 mph23.0 mphRainHeavy Rain
4:33 PM80.6 °F77.0 °F89 %29.80 in1.0 miESE (110°)10.4 mph23.0 mphRainLight Rain
4:36 PM80.6 °F75.2 °F84 %29.80 in1.2 miESE (110°)11.5 mphRainLight Rain
4:37 PM80.6 °F75.2 °F84 %29.80 in2.5 miESE (110°)10.4 mphRainLight Rain
4:38 PM80.6 °F75.2 °F84 %29.80 in4.0 miESE (110°)9.2 mphHaze
4:55 PM81.3 °F75.7 °F83 %29.80 in10.0 miESE (110°)8.1 mph0.12 inPartly Cloudy
5:38 PM82.4 °F77.0 °F84 %29.80 in10.0 miEast (90°)10.4 mphMostly Cloudy
5:47 PM80.6 °F75.2 °F84 %29.80 in10.0 miEast (80°)15.0 mph19.6 mphMostly Cloudy
5:55 PM80.8 °F75.9 °F85 %29.80 in10.0 miEast (80°)10.4 mphMostly Cloudy
6:55 PM79.9 °F76.1 °F88 %29.81 in10.0 miEast (90°)9.2 mphPartly Cloudy
7:55 PM79.9 °F75.7 °F87 %29.83 in10.0 miEast (90°)10.4 mphMostly Cloudy
8:45 PM80.6 °F77.0 °F89 %29.83 in10.0 miEast (90°)9.2 mphOvercast
8:47 PM80.6 °F77.0 °F89 %29.83 in10.0 miEast (90°)9.2 mphOvercast
8:49 PM80.6 °F77.0 °F89 %29.83 in10.0 miEast (90°)9.2 mphOvercast
8:55 PM80.4 °F76.6 °F88 %29.83 in10.0 miEast (90°)9.2 mphOvercast
9:00 PM80.6 °F77.0 °F89 %29.84 in10.0 miEast (90°)9.2 mphOvercast
9:01 PM80.6 °F77.0 °F89 %29.84 in10.0 miEast (90°)9.2 mphOvercast
9:03 PM80.6 °F77.0 °F89 %29.84 in10.0 miEast (90°)10.4 mphOvercast
9:05 PM80.6 °F77.0 °F89 %29.84 in10.0 miEast (90°)9.2 mphOvercast
9:09 PM80.6 °F77.0 °F89 %29.84 in10.0 miESE (110°)12.7 mphOvercast
9:10 PM80.6 °F77.0 °F89 %29.84 in10.0 miESE (110°)10.4 mphOvercast
9:12 PM80.6 °F77.0 °F89 %29.84 in10.0 miESE (110°)10.4 mphOvercast
9:16 PM80.6 °F75.2 °F84 %29.84 in10.0 miESE (120°)9.2 mphOvercast
9:55 PM80.4 °F76.3 °F87 %29.85 in10.0 miEast (100°)6.9 mphMostly Cloudy
10:43 PM80.6 °F75.2 °F84 %29.85 in10.0 miESE (120°)9.2 mphMostly Cloudy
10:55 PM80.6 °F75.9 °F86 %29.85 in10.0 miESE (110°)8.1 mphMostly Cloudy
10:57 PM80.6 °F75.2 °F84 %29.85 in10.0 miESE (110°)9.2 mphMostly Cloudy
11:00 PM80.6 °F77.0 °F89 %29.85 in10.0 miESE (120°)8.1 mphMostly Cloudy
11:03 PM80.6 °F77.0 °F89 %29.85 in10.0 miESE (120°)9.2 mphMostly Cloudy
11:09 PM80.6 °F77.0 °F89 %29.86 in10.0 miEast (80°)10.4 mphMostly Cloudy
11:21 PM80.6 °F75.2 °F84 %29.86 in10.0 miEast (100°)11.5 mphThunderstormMostly Cloudy
11:32 PM80.6 °F75.2 °F84 %29.85 in10.0 miEast (100°)10.4 mphThunderstormMostly Cloudy
11:55 PM80.4 °F75.2 °F84 %29.84 in10.0 miEast (90°)10.4 mphMostly Cloudy
Hourly data recorded from PGUA, located 14.33 miles away from Umatac, Guam







STORIES FROM OUR PARTNERS